Weather History for Battle Creek, MI

Change the Weather History Date:

Monday, August 26, 2013

  Actual Average Record
Temperature  
Mean Temperature 75 °F 68 °F  
Max Temperature 84 °F 80 °F 89 °F (2012)
Min Temperature 65 °F 57 °F 50 °F (2008)
Degree Days  
Heating Degree Days 0 1  
Month to date heating degree days 21 26  
Since 1 June heating degree days 80 98  
Since 1 July heating degree days 38 41  
Cooling Degree Days 10 4  
Month to date cooling degree days 95 140  
Year to date cooling degree days 547 501  
Since 1 June cooling degree days 470 463  
Growing Degree Days 23 (Base 50)    
Moisture  
Dew Point 66 °F    
Average Humidity 75    
Maximum Humidity 87    
Minimum Humidity 62    
Precipitation  
Precipitation 0.00 in 0.11 in 0.44 in (2012)
Month to date precipitation 4.52 2.90  
Year to date precipitation 25.94 20.97  
Sea Level Pressure  
Sea Level Pressure 30.09 in    
Wind  
Wind Speed 10 mph (SW)    
Max Wind Speed 17 mph    
Max Gust Speed 22 mph    
Visibility 10 miles    
Events      
T = Trace of Precipitation, MM = Missing Value Source: NWS Daily Summary

Daily Weather History Graph

Daily Weather History Graph

Search for Another Location

Airport:

Trip Planner

Search our weather history database for the weather conditions in past years. The results will help you decide how hot, cold, wet, or windy it might be!

Date:

Astronomy

Aug. 26, 2013 Rise Set
Actual Time 7:00 AM EDT 8:24 PM EDT
Civil Twilight 6:30 AM EDT 8:53 PM EDT
Nautical Twilight 5:55 AM EDT 9:28 PM EDT
Astronomical Twilight 5:18 AM EDT 10:05 PM EDT
Moon 11:26 PM EDT (8/26) 1:08 PM EDT (8/26)
Length of Visible Light 14h 22m
Length of Day
13h 24m
Waning Gibbous, 67% of the Moon is Illuminated
Aug 26
Waning Gibbous
Aug 28
Last Quarter
Sep 5
New
Sep 12
First Quarter
Sep 19
Full

Hourly Weather History & Observations

Time (EDT) Temp. Heat Index Dew Point Humidity Pressure Visibility Wind Dir Wind Speed Gust Speed Precip Events Conditions
12:53 AM 71.1 °F - 63.0 °F 75% 30.18 in 10.0 mi SSW 10.4 mph - N/A   Clear
1:53 AM 71.1 °F - 62.1 °F 73% 30.15 in 10.0 mi SW 11.5 mph - N/A   Clear
2:53 AM 70.0 °F - 61.0 °F 73% 30.13 in 10.0 mi SW 11.5 mph - N/A   Clear
3:53 AM 68.0 °F - 61.0 °F 78% 30.15 in 10.0 mi SW 8.1 mph - N/A   Clear
4:53 AM 68.0 °F - 60.1 °F 76% 30.16 in 10.0 mi SW 6.9 mph - N/A   Clear
5:53 AM 64.9 °F - 60.1 °F 84% 30.15 in 10.0 mi SW 8.1 mph - N/A   Clear
6:53 AM 66.0 °F - 60.1 °F 81% 30.15 in 10.0 mi SW 8.1 mph - N/A   Clear
7:53 AM 66.9 °F - 61.0 °F 81% 30.16 in 10.0 mi SW 8.1 mph - N/A   Clear
8:53 AM 70.0 °F - 61.0 °F 73% 30.16 in 10.0 mi SW 9.2 mph - N/A   Clear
9:53 AM 73.9 °F - 63.0 °F 68% 30.16 in 10.0 mi WSW 9.2 mph - N/A   Clear
10:53 AM 78.1 °F - 64.9 °F 64% 30.14 in 10.0 mi WSW 9.2 mph - N/A   Clear
11:53 AM 81.0 °F 83.0 °F 66.0 °F 60% 30.14 in 10.0 mi WSW 11.5 mph - N/A   Partly Cloudy
12:53 PM 81.0 °F 83.3 °F 66.9 °F 62% 30.12 in 10.0 mi West 9.2 mph - N/A   Clear
1:53 PM 82.9 °F 85.8 °F 68.0 °F 60% 30.09 in 10.0 mi West 12.7 mph - N/A   Clear
2:53 PM 82.0 °F 85.9 °F 70.0 °F 67% 30.04 in 10.0 mi SW 12.7 mph - N/A   Clear
3:53 PM 82.9 °F 87.5 °F 71.1 °F 67% 30.02 in 10.0 mi SW 12.7 mph - N/A   Clear
4:53 PM 82.9 °F 87.5 °F 71.1 °F 67% 30.03 in 10.0 mi West 10.4 mph - N/A   Clear
5:53 PM 82.9 °F 87.5 °F 71.1 °F 67% 30.03 in 10.0 mi West 9.2 mph - N/A   Mostly Cloudy
6:53 PM 82.0 °F 86.3 °F 71.1 °F 69% 30.03 in 10.0 mi West 8.1 mph - N/A   Partly Cloudy
7:53 PM 81.0 °F 84.9 °F 71.1 °F 72% 30.02 in 10.0 mi WSW 8.1 mph - N/A   Mostly Cloudy
8:53 PM 79.0 °F - 71.1 °F 77% 30.01 in 10.0 mi SW 10.4 mph - N/A   Clear
9:53 PM 78.1 °F - 71.1 °F 79% 30.01 in 10.0 mi SW 10.4 mph - N/A   Clear
10:53 PM 78.1 °F - 70.0 °F 76% 30.01 in 10.0 mi WSW 10.4 mph - N/A   Mostly Cloudy
11:53 PM 77.0 °F - 70.0 °F 79% 30.00 in 10.0 mi WSW 9.2 mph - N/A   Mostly Cloudy